sat.trackr.live / text

‹ back to catalog

SINOD-D 3

NORAD 40977 · 2015-058P

PAYLOAD ACTIVE UNKNOWN

§ Identity

Operator
Country
US
Launch date
2015-10-08
Launch site
AFWTR
Launch vehicle
Mass (kg)
RCS (m²)

Purposes: tech_demo

External: N2YO · Heavens-Above · Gunter

§ Orbital elements

Epoch: 2026-09-20T04:57:27.345600Z

Period
96.35 min
Inclination
64.7724°
Eccentricity
0.0127244
Mean motion
14.94582694 rev/d
Perigee alt
495.1 km
Apogee alt
672.3 km
Semi-major
6,961.8 km
B*
1.3132e-4
RAAN
338.9534°
Arg perigee
22.0902°
Mean anomaly
338.5625°
Rev number
12,895

§ Raw data

SINOD-D 31 40977U 15058P   26263.20656650  .00001486  00000+0  13132-3 0  99962 40977  64.7724 338.9534 0127244  22.0902 338.5625 14.94582694128958

JSON: /api/v1/satellites/40977 · /tle

For live sub-satellite position, see the globe view (requires WebGL).

§ Visibility from observer

Set your observer location to see the next 7 days of passes ≥ 10°. The values pass through the URL so the page stays shareable.

No JS? Fill the form by hand. The geolocation button needs JavaScript.